Flag for New Zealand Weather past 2 weeks in Auckland, New Zealand

Now
52 °F

Cool.


Feels Like: 49 °F
Forecast: 43 / 52 °F
Wind: 7 mph from South

Location: Auckland Airport

Current Time: Aug 21, 2014 at 10:09:52 PM

Latest Report: Aug 21, 2014 at 9:30 PM


Visibility: N/A

Pressure: 30.01 "Hg

Humidity: 77%

Dew point: 45 °F

Location of AucklandLocation

Historic Weather in Auckland — Graph

°F

Auckland temperature yesterday

Maximum temperature yesterday: 61 °F (at 10:30 AM)
Minimum temperature yesterday: 54 °F (at 5:30 AM)
Average temperature yesterday: 57 °F

Past Weeks' High & Low Weather Summary

 TemperatureHumidityPressure
High61 °F (Aug 11, 2:00 PM)100% (Aug 10, 8:30 PM)30.30 "Hg (Aug 10, 8:30 PM)
Low39 °F (Aug 10, 4:00 AM)47% (Aug 9, 12:30 PM)29.53 "Hg (Aug 20, 3:00 PM)
Average53 °F81%29.98 "Hg
* Reported Aug 6 9:00 PM — Aug 21 9:00 PM, Auckland, Weather by CustomWeather, © 2014

Note: Actual official high and low records may vary slightly from our data, if they occured in-between our weather recording intervals... More about our weather records

Advertising

Auckland weather history for previous 24 hours

 ConditionsComfort  
Time TempWeatherWind HumidityBarometerVisibility
9:00 PM
Aug 21
52 °FCool.7 mph77%30.01 "HgN/A
8:30 PM52 °FCool.6 mph82%29.98 "HgN/A
8:00 PM54 °FPassing clouds.10 mph77%29.95 "HgN/A
7:30 PM54 °FPassing clouds.10 mph77%29.95 "HgN/A
7:00 PM54 °FPassing clouds.10 mph82%29.92 "HgN/A
6:30 PM54 °FCool.13 mph77%29.89 "HgN/A
6:00 PM54 °FCool.13 mph77%29.89 "HgN/A
5:30 PM55 °FCool.17 mph67%29.86 "HgN/A
5:00 PM55 °FCool.20 mph72%29.86 "HgN/A
4:30 PM55 °FCool.17 mph77%29.83 "HgN/A
4:00 PM57 °FCool.20 mph72%29.83 "HgN/A
3:30 PM57 °FPassing clouds.21 mph72%29.80 "HgN/A
3:00 PM59 °FCool.23 mph72%29.80 "HgN/A
2:30 PM57 °FCool.23 mph72%29.80 "HgN/A
2:00 PM59 °FCool.22 mph68%29.80 "HgN/A
1:30 PM59 °FCool.20 mph63%29.77 "HgN/A
1:00 PM59 °FCool.18 mph68%29.80 "HgN/A
12:30 PM57 °FCool.17 mph77%29.80 "HgN/A
11:30 AM57 °FCool.18 mph77%29.77 "HgN/A
11:00 AM57 °FCool.18 mph72%29.77 "HgN/A
10:30 AM57 °FPartly sunny.18 mph77%29.74 "HgN/A
10:00 AM57 °FOvercast.18 mph82%29.74 "HgN/A
9:30 AM57 °FPartly sunny.16 mph77%29.74 "HgN/A
9:00 AM55 °FScattered clouds.15 mph88%29.71 "HgN/A
8:30 AM55 °FPartly sunny.17 mph88%29.71 "HgN/A
8:00 AM55 °FScattered clouds.17 mph88%29.68 "HgN/A
7:30 AM54 °FPartly sunny.17 mph94%29.68 "HgN/A
7:00 AM55 °FPartly sunny.16 mph94%29.65 "HgN/A
6:30 AM55 °FPartly sunny.15 mph94%29.62 "HgN/A
6:00 AM55 °FLow clouds.12 mph94%29.62 "HgN/A
5:30 AM55 °FPartly cloudy.9 mph94%29.59 "HgN/A
5:00 AM55 °FPartly cloudy.12 mph94%29.59 "HgN/A
4:30 AM55 °FSprinkles. Partly cloudy.12 mph100%29.59 "Hg4 mi
4:00 AM55 °FSprinkles. Partly cloudy.9 mph100%29.56 "HgN/A
3:30 AM55 °FLight rain. Overcast.7 mph100%29.56 "Hg4 mi
3:00 AM55 °FRain. Partly cloudy.6 mph100%29.56 "Hg2 mi
2:30 AM55 °FLight rain. Passing clouds.12 mph100%29.56 "Hg5 mi
2:00 AM55 °FLight rain. Passing clouds.3 mph100%29.56 "Hg4 mi
1:30 AM54 °FLight rain. Passing clouds.No wind100%29.56 "Hg4 mi
1:00 AM54 °FSprinkles. Passing clouds.2 mph100%29.53 "Hg4 mi
12:30 AM54 °FPassing clouds.3 mph100%29.53 "HgN/A
12:00 AM54 °FMostly cloudy.2 mph100%29.53 "HgN/A
11:30 PM
Aug 20
54 °FPassing clouds.2 mph100%29.53 "HgN/A
11:00 PM54 °FPassing clouds.1 mph100%29.53 "HgN/A
10:30 PM54 °FPassing clouds.3 mph100%29.56 "Hg4 mi
10:00 PM55 °FPartly cloudy.2 mph100%29.56 "HgN/A
Weather by CustomWeather, © 2014

See weather overviewHow to use our weather pages